CAPE
0 1 1 2 0 0 0 0 0 3 0 0 0 0 0 0 0 0 0 0 0 0 0 0 0 0 0 0 0 0 0 0 0 0 0 0 0 0 0 0 0 0 0 0
0 0 0 0 0 1 0 0 0 0 0 0 0 0 0 0 0 0 0 0 0 0 0 0 0 0 0 0 0 0 0 0 0 0 0 0 0 0 0 0 0 0 0 0
0 0 0 0 0 0 0 0 0 0 0 0 0 0 0 0 0 0 0 0 0 0 0 0 0 0 0 0 0 0 0 0 0 0 0 0 0 0 0 0 0 0 0 0
0 0 0 0 0 0 0 0 0 0 0 0 0 0 0 0 0 0 0 0 0 0 0 0 0 0 0 0 0 0 0 0 0 0 0 0 0 0 0 0 0 0 0 0
0 0 0 1 0 0 1 0 0 0 0 0 0 1 0 0 0 0 0 0 0 0 0 0 0 0 0 0 0 0 0 0 0 0 0 0 0 0 0 0 0 0 0 0
0 0 0 0 0 0 2 0 4 5 0 1 0 0 0 0 0 0 0 0 0 0 0 0 0 0 0 0 0 0 0 0 0 0 0 0 0 0 0 0 0 0 0 0
3 1 1 0 0 0 1 0 0 0 0 0 0 0 0 0 0 0 0 0 0 0 0 0 0 0 0 0 0 0 0 0 0 0 0 0 0 0 0 0 0 0 0 0
0 0 0 0 0 0 0 0 0 0 0 0 0 0 0 0 0 0 0 0 0 0 0 0 0 0 0 0 0 0 0 0 0 0 0 0 0 0 0 0 0 0 0 0
1 0 0 0 0 1 1 0 0 0 0 0 0 0 0 0 0 0 0 0 0 0 0 0 0 0 0 0 0 0 0 0 0 0 0 0 0 0 0 0 0 0 0 0
0 1 0 0 0 2 3 0 0 0 0 0 0 0 0 0 0 0 0 0 0 0 0 0 0 0 0 0 0 0 0 0 0 0 0 0 0 0 0 0 0 0 0 0
1 2 0 3 4 0 2 1 0 0 0 0 0 0 0 0 0 0 0 0 0 0 0 0 0 0 0 0 0 0 0 0 0 0 0 0 0 0 0 0 0 0 0 0
0 2 0 0 0 0 0 0 6 3 0 0 0 0 4 0 0 0 0 0 0 0 0 0 0 0 0 0 0 0 0 0 0 0 0 0 0 0 0 0 0 0 0 0
0 0 0 0 0 2 0 0 0 6 4 0 0 0 0 0 0 0 0 0 0 0 0 0 0 0 0 0 0 0 0 0 0 0 0 0 0 0 0 0 0 0 0 0
0 0 0 0 0 0 0 1 0 0 0 0 0 0 0 0 0 0 0 0 0 0 0 0 0 0 0 0 0 0 0 0 0 0 0 0 0 0 0 0 0 0 0 0
0 0 0 0 1 0 0 0 1 0 0 0 0 0 0 0 0 0 0 0 0 0 0 0 0 0 0 0 0 0 0 0 0 0 0 0 0 0 0 0 0 0 0 0
3 0 1 0 0 1 2 1 0 0 0 0 0 0 0 6 0 0 0 0 0 0 0 0 0 0 0 0 0 0 0 0 0 0 0 0 0 0 0 0 0 0 0 0
1 0 0 0 0 0 0 1 3 2 2 0 0 0 0 0 0 2 0 0 0 0 0 0 0 0 0 0 0 0 0 0 0 0 0 0 0 0 0 0 0 0 0 0
1 0 0 0 0 0 0 3 0 0 0 0 0 0 0 0 0 0 0 0 0 0 0 0 0 0 0 0 0 0 0 0 0 0 0 0 0 0 0 0 0 0 0 0
0 2 0 0 1 0 0 0 0 0 0 0 0 0 0 0 0 0 0 0 0 0 0 0 0 0 0 0 0 0 0 0 0 0 0 0 0 0 0 0 0 0 0 0
0 0 0 0 0 0 0 0 0 0 0 0 0 0 0 0 0 0 0 0 0 0 0 0 0 0 0 0 0 0 0 0 0 0 0 0 0 0 0 0 0 0 0 0
0 1 0 4 1 0 0 0 0 0 0 0 0 0 0 0 0 0 0 0 0 0 0 0 0 0 0 0 0 0 0 0 0 0 0 0 0 0 0 0 0 0 0 0
0 0 0 0 0 0 0 0 0 0 0 0 0 0 0 0 0 0 0 0 0 0 0 0 0 0 0 0 0 0 0 0 0 0 0 0 0 0 0 0 0 0 0 0
0 0 0 0 0 0 0 0 0 0 0 0 0 0 0 0 0 0 0 0 0 0 0 0 0 0 0 0 0 0 0 0 0 0 0 0 0 0 0 0 0 0 0 0
0 0 0 0 0 0 0 0 0 0 0 0 0 0 0 0 0 0 0 0 0 0 0 0 0 0 0 0 0 0 0 0 0 0 0 0 0 0 0 0 0 0 0 0
0 0 0 0 0 0 0 0 0 0 0 0 0 0 0 0 0 0 0 0 0 0 0 0 0 0 0 0 0 0 0 0 0 0 0 0 0 0 0 0 0 0 0 0
0 0 0 0 0 0 0 0 0 0 0 0 0 0 0 0 0 0 0 0 0 0 0 0 0 0 0 0 0 0 0 0 0 0 0 0 0 0 0 0 0 0 0 0
CIN
-0 -0 -0 -3 -0 -0 -0 -1 -6 -3 -0 -0 -0 -0 -0 -0 -0 -0 -0 -0 -0 -0 -0 -0 -0 -0 -0 -0 -0 -0 -0 -0 -0 -0 -0 -0 -0 -0 -0 -0 -0 -0 -0 -0
-0 -0 -0 -0 -5 -8 -0 -0 -0 -0 -0 -0 -0 -0 -0 -0 -0 -0 -0 -0 -0 -0 -0 -0 -0 -0 -0 -0 -0 -0 -0 -0 -0 -0 -0 -0 -0 -0 -0 -0 -0 -0 -0 -0
-0 -0 -0 -0 -0 -1 -0 -0 -0 -0 -0 -0 -0 -0 -0 -0 -0 -0 -0 -0 -0 -0 -0 -0 -0 -0 -0 -0 -0 -0 -0 -0 -0 -0 -0 -0 -0 -0 -0 -0 -0 -0 -0 -0
-0 -0 -0 -0 -0 -0 -0 -0 -0 -0 -0 -0 -0 -0 -0 -0 -0 -0 -0 -0 -0 -0 -0 -0 -0 -0 -0 -0 -0 -0 -0 -0 -0 -0 -0 -0 -0 -0 -0 -0 -0 -0 -0 -0
-0 -0 -0 -0 -0 -0 -0 -0 -0 -0 -0 -0 -0 -0 -0 -0 -0 -0 -0 -0 -0 -0 -0 -0 -0 -0 -0 -0 -0 -0 -0 -0 -0 -0 -0 -0 -0 -0 -0 -0 -0 -0 -0 -0
-0 -0 -0 -0 -0 -0 -0 -2 -0 -0 -0 -0 -0 -0 -0 -0 -0 -0 -0 -0 -0 -0 -0 -0 -0 -0 -0 -0 -0 -0 -0 -0 -0 -0 -0 -0 -0 -0 -0 -0 -0 -0 -0 -0
-0 -0 -0 -0 -0 -0 -0 -1 -0 -0 -0 -0 -0 -0 -0 -0 -0 -0 -0 -0 -0 -0 -0 -0 -0 -0 -0 -0 -0 -0 -0 -0 -0 -0 -0 -0 -0 -0 -0 -0 -0 -0 -0 -0
-0 -0 -0 -0 -0 -0 -0 -0 -0 -0 -0 -0 -0 -0 -0 -0 -0 -0 -0 -0 -0 -0 -0 -0 -0 -0 -0 -0 -0 -0 -0 -0 -0 -0 -0 -0 -0 -0 -0 -0 -0 -0 -0 -0
-2 -0 -0 -0 -0 -0 -0 -0 -0 -0 -0 -0 -0 -0 -0 -0 -0 -0 -0 -0 -0 -0 -0 -0 -0 -0 -0 -0 -0 -0 -0 -0 -0 -0 -0 -0 -0 -0 -0 -0 -0 -0 -0 -0
-1 -1 -0 -0 -1 -2 -1 -0 -1 -0 -0 -0 -0 -0 -0 -0 -0 -0 -0 -0 -0 -0 -0 -0 -0 -0 -0 -0 -0 -0 -0 -0 -0 -0 -0 -0 -0 -0 -0 -0 -0 -0 -0 -0
-5 -0 -0 -2 -0 -0 -0 -1 -1 -2 -0 -0 -0 -0 -0 -0 -0 -0 -0 -0 -0 -0 -0 -0 -0 -0 -0 -0 -0 -0 -0 -0 -0 -0 -0 -0 -0 -0 -0 -0 -0 -0 -0 -0
-0 -0 -0 -0 -0 -0 -0 -0 -23 -8 -0 -0 -0 -0 -163 -0 -0 -0 -0 -0 -0 -0 -0 -0 -0 -0 -0 -0 -0 -0 -0 -0 -0 -0 -0 -0 -0 -0 -0 -0 -0 -0 -0 -0
-0 -0 -0 -0 -0 -0 -0 -0 -0 -3 -19 -0 -0 -0 -0 -0 -0 -0 -0 -0 -0 -0 -0 -0 -0 -0 -0 -0 -0 -0 -0 -0 -0 -0 -0 -0 -0 -0 -0 -0 -0 -0 -0 -0
-0 -0 -0 -0 -0 -0 -0 -0 -0 -0 -1 -0 -0 -0 -0 -0 -0 -0 -0 -0 -0 -0 -0 -0 -0 -0 -0 -0 -0 -0 -0 -0 -0 -0 -0 -0 -0 -0 -0 -0 -0 -0 -0 -0
-0 -0 -0 -0 -0 -0 -0 -0 -0 -0 -0 -0 -0 -0 -0 -0 -0 -0 -0 -0 -0 -0 -0 -0 -0 -0 -0 -0 -0 -0 -0 -0 -0 -0 -0 -0 -0 -0 -0 -0 -0 -0 -0 -0
-0 -0 -0 -0 -0 -0 -0 -0 -0 -0 -0 -0 -0 -0 -0 -0 -15 -0 -0 -0 -0 -0 -0 -0 -0 -0 -0 -0 -0 -0 -0 -0 -0 -0 -0 -0 -0 -0 -0 -0 -0 -0 -0 -0
-0 -0 -0 -0 -0 -0 -0 -0 -0 -0 -0 -0 -0 -0 -0 -0 -0 -0 -0 -0 -0 -0 -0 -0 -0 -0 -0 -0 -0 -0 -0 -0 -0 -0 -0 -0 -0 -0 -0 -0 -0 -0 -0 -0
-0 -0 -0 -0 -0 -0 -0 -1 -0 -0 -0 -0 -0 -0 -0 -0 -0 -0 -0 -0 -0 -0 -0 -0 -0 -0 -0 -0 -0 -0 -0 -0 -0 -0 -0 -0 -0 -0 -0 -0 -0 -0 -0 -0
-0 -0 -0 -0 -0 -0 -0 -0 -0 -0 -0 -0 -0 -0 -0 -0 -0 -0 -0 -0 -0 -0 -0 -0 -0 -0 -0 -0 -0 -0 -0 -0 -0 -0 -0 -0 -0 -0 -0 -0 -0 -0 -0 -0
-0 -0 -0 -0 -0 -0 -0 -0 -0 -0 -0 -0 -0 -0 -0 -0 -0 -0 -0 -0 -0 -0 -0 -0 -0 -0 -0 -0 -0 -0 -0 -0 -0 -0 -0 -0 -0 -0 -0 -0 -0 -0 -0 -0
-0 -0 -0 -1 -0 -0 -0 -0 -0 -0 -0 -0 -0 -0 -0 -0 -0 -0 -0 -0 -0 -0 -0 -0 -0 -0 -0 -0 -0 -0 -0 -0 -0 -0 -0 -0 -0 -0 -0 -0 -0 -0 -0 -0
-0 -0 -0 -0 -0 -0 -0 -0 -0 -0 -0 -0 -0 -0 -0 -0 -0 -0 -0 -0 -0 -0 -0 -0 -0 -0 -0 -0 -0 -0 -0 -0 -0 -0 -0 -0 -0 -0 -0 -0 -0 -0 -0 -0
-0 -0 -0 -0 -0 -0 -0 -0 -0 -0 -0 -0 -0 -0 -0 -0 -0 -0 -0 -0 -0 -0 -0 -0 -0 -0 -0 -0 -0 -0 -0 -0 -0 -0 -0 -0 -0 -0 -0 -0 -0 -0 -0 -0
-0 -0 -0 -0 -0 -0 -0 -0 -0 -0 -0 -0 -0 -0 -0 -0 -0 -0 -0 -0 -0 -0 -0 -0 -0 -0 -0 -0 -0 -0 -0 -0 -0 -0 -0 -0 -0 -0 -0 -0 -0 -0 -0 -0
-0 -0 -0 -0 -0 -0 -0 -0 -0 -0 -0 -0 -0 -0 -0 -0 -0 -0 -0 -0 -0 -0 -0 -0 -0 -0 -0 -0 -0 -0 -0 -0 -0 -0 -0 -0 -0 -0 -0 -0 -0 -0 -0 -0
-0 -0 -0 -0 -0 -0 -0 -0 -0 -0 -0 -0 -0 -0 -0 -0 -0 -0 -0 -0 -0 -0 -0 -0 -0 -0 -0 -0 -0 -0 -0 -0 -0 -0 -0 -0 -0 -0 -0 -0 -0 -0 -0 -0
Wind_Speed
20 24 26 24 23 27 32 35 38 34 33 38 43 52 51 47 47 48 49 47 44 42 36 35 30 26 26 21 17 15 13 10 8 10 9 8 7 8 8 8 9 10 10 13
24 30 26 25 25 29 33 39 44 44 38 40 46 62 54 52 54 49 47 49 44 43 37 35 28 23 23 22 16 14 12 9 8 10 10 8 5 8 7 7 8 9 10 12
28 26 23 23 28 32 34 38 42 46 42 44 50 67 56 54 53 50 47 46 47 43 42 34 27 20 20 22 17 14 10 9 8 7 6 4 4 6 8 7 8 9 10 12
29 28 29 27 30 29 42 32 37 40 40 43 27 55 47 44 49 44 43 40 42 41 38 33 26 21 17 19 18 13 9 8 8 7 7 9 6 5 8 6 6 8 10 12
28 27 28 31 31 28 35 29 32 33 38 44 42 43 46 36 43 42 40 38 37 35 34 30 27 21 20 16 16 13 8 8 8 8 8 7 5 6 3 4 5 7 10 13
32 27 29 29 27 25 26 30 33 34 37 50 44 38 60 46 45 43 44 42 38 36 31 28 26 21 19 16 14 12 9 8 7 7 7 7 5 3 2 3 5 7 11 14
31 31 28 26 30 26 26 30 39 41 42 50 33 39 48 36 34 37 39 39 39 36 32 27 24 20 18 16 14 12 8 8 7 7 7 6 4 3 3 2 3 6 11 15
31 37 24 21 26 28 26 29 36 44 46 47 36 48 46 42 46 44 44 40 37 35 31 26 24 21 19 17 15 13 10 8 8 6 6 5 3 2 1 1 4 9 12 15
25 27 19 14 12 14 21 30 29 39 40 43 43 46 47 47 45 43 44 41 37 35 27 26 23 23 21 18 16 14 11 8 8 6 5 4 3 2 1 4 7 10 13 16
17 25 7 4 0 3 6 12 24 29 40 42 42 46 46 38 38 36 39 40 38 31 25 23 23 25 23 18 16 14 11 9 7 5 4 3 2 1 2 5 8 11 15 18
7 4 8 8 3 4 5 8 6 16 21 33 39 38 28 21 25 31 34 36 35 28 25 22 20 23 21 18 16 14 11 9 7 6 4 3 2 2 4 7 10 13 16 19
3 2 6 10 11 7 10 11 15 15 24 26 34 52 22 23 24 29 30 29 29 26 21 19 21 20 20 17 16 14 11 9 7 6 4 3 2 3 6 8 11 14 17 20
4 1 6 8 11 7 10 14 16 16 21 19 34 40 31 33 29 27 26 24 19 17 16 18 20 19 18 17 14 12 11 9 7 6 5 3 3 4 7 10 13 16 19 22
5 3 10 16 17 11 7 17 12 19 38 40 43 37 40 36 33 29 25 22 19 15 17 19 18 18 17 15 13 12 10 8 7 6 4 3 4 6 8 11 14 17 20 23
6 12 11 17 21 16 16 18 22 30 37 36 34 38 37 33 31 27 24 23 22 18 17 16 14 15 15 13 11 10 8 7 6 5 4 4 4 7 9 13 15 18 22 25
3 9 13 15 9 4 12 20 21 26 31 33 35 36 31 27 26 29 27 23 23 16 14 16 14 14 12 11 10 9 8 7 5 3 2 3 5 8 11 14 17 20 23 26
8 4 1 12 5 5 9 15 22 24 29 28 29 31 30 31 26 27 26 24 25 19 18 15 11 10 9 9 8 8 7 6 3 1 2 4 6 10 13 15 18 22 25 27
12 7 4 9 2 8 5 10 22 24 24 29 30 26 24 23 21 21 22 25 29 18 15 13 9 7 6 6 6 6 6 4 2 1 3 5 8 11 14 17 20 23 25 29
15 12 8 8 4 8 2 6 19 22 18 27 29 29 26 21 16 15 17 15 10 5 9 9 4 6 8 9 8 7 5 3 1 2 4 7 10 12 15 18 21 24 27 29
17 16 13 8 7 6 9 4 18 18 12 22 29 28 25 19 19 12 10 7 3 3 3 8 9 8 8 8 8 7 5 3 2 3 6 9 11 13 16 19 22 25 26 29
17 16 14 13 12 11 10 10 21 12 13 12 24 28 24 23 17 13 9 7 6 4 7 10 8 7 8 8 7 5 4 2 4 6 8 10 13 15 17 20 23 25 29 31
14 13 13 13 13 12 12 17 17 13 14 16 19 28 28 15 11 11 10 7 6 7 7 5 5 6 6 6 7 5 4 5 6 8 10 12 14 16 19 21 24 27 30 32
14 9 14 11 12 13 14 10 17 16 15 17 13 13 8 3 12 9 5 3 5 6 8 8 9 9 7 6 6 6 6 6 7 9 11 13 15 18 21 23 26 28 31 34
13 11 13 17 14 11 11 11 12 18 17 15 10 7 4 3 3 4 6 5 6 6 8 9 10 9 8 7 7 8 8 8 9 11 13 14 17 20 22 24 26 29 33 35
15 11 12 15 7 6 17 10 13 14 14 15 14 12 12 13 11 11 10 9 9 9 9 10 10 10 10 9 10 9 9 9 11 12 14 17 18 21 23 25 27 31 31 33
15 17 14 15 16 15 16 10 10 11 12 14 15 15 14 15 15 12 11 10 11 12 12 11 11 11 11 11 11 11 11 11 12 14 15 17 19 22 24 28 30 30 31 33
Wind_Direction
297 288 287 291 289 291 294 292 289 291 297 292 284 275 271 273 273 270 268 268 270 271 275 274 279 284 280 281 283 287 284 275 240 237 242 257 265 279 296 316 329 338 347 351
294 287 293 296 292 290 290 288 286 289 293 289 284 269 274 270 267 270 270 267 270 270 273 272 278 279 278 272 276 283 281 269 248 242 250 256 252 283 295 313 330 341 348 356
287 299 308 288 289 288 288 286 287 286 290 286 286 267 274 271 268 268 269 269 267 268 268 270 270 272 274 266 270 275 274 261 250 226 231 241 278 289 290 305 325 335 348 356
295 295 293 293 289 289 286 289 288 288 286 283 294 279 276 274 270 271 271 270 267 266 266 266 265 263 261 263 269 271 267 252 241 214 203 197 218 238 278 292 322 338 347 353
299 302 299 287 286 289 290 294 289 288 285 283 279 281 279 278 272 273 274 273 270 268 263 259 257 255 258 258 261 267 263 248 235 223 206 212 235 279 260 302 323 337 346 350
293 301 299 295 295 288 298 289 289 288 283 276 275 274 269 275 274 277 276 274 271 268 263 256 254 249 249 251 253 258 254 248 222 210 208 208 202 201 227 290 313 330 337 344
301 293 297 297 292 291 284 288 285 281 273 275 281 273 270 280 283 281 279 276 272 267 262 251 243 237 235 234 240 247 241 237 220 209 223 231 220 198 193 241 315 333 334 339
308 306 298 295 283 289 276 275 278 280 277 278 279 273 275 280 278 276 274 275 274 267 262 253 242 233 228 228 230 237 233 222 222 218 227 236 219 198 179 310 330 332 337 341
321 318 330 327 312 293 298 277 277 280 282 280 277 279 281 279 278 278 272 270 270 263 265 254 242 233 226 224 225 226 224 221 223 223 224 226 204 172 205 328 334 339 341 343
336 321 346 355 85 221 219 330 293 278 277 277 279 277 275 280 286 289 277 268 267 263 258 250 246 234 229 226 226 226 223 219 219 218 215 198 191 233 322 332 335 339 342 343
171 193 6 12 285 258 250 257 274 302 288 281 281 282 291 284 297 300 289 271 270 259 251 246 238 229 224 226 221 220 216 212 215 213 204 193 222 296 325 332 338 340 341 342
158 9 275 260 317 281 261 266 243 262 287 285 284 259 277 276 295 301 298 278 271 255 249 238 228 218 214 214 217 214 212 210 214 206 204 218 259 310 327 334 337 339 340 341
74 316 285 341 350 311 286 267 254 249 287 231 268 238 248 250 272 287 290 277 267 256 240 230 227 217 208 207 210 213 215 210 205 204 211 240 283 315 326 332 336 339 339 340
114 223 236 259 264 332 272 225 225 206 221 227 216 230 232 252 266 273 285 267 258 253 239 233 224 211 204 210 210 213 214 207 203 208 224 255 296 318 329 334 336 338 340 340
158 241 246 263 263 246 229 205 191 192 203 202 222 221 233 247 252 262 266 250 238 236 230 226 213 199 199 202 206 210 210 205 198 208 239 280 315 329 333 335 337 339 339 339
114 245 261 282 289 228 183 184 179 186 193 204 213 223 226 233 264 250 242 245 235 240 232 225 211 205 201 198 202 207 201 194 192 207 251 309 326 331 334 336 337 338 338 339
180 196 230 272 258 190 153 173 186 184 189 193 193 207 220 237 230 225 234 238 228 230 222 220 206 199 202 201 193 183 172 166 170 192 307 327 331 333 334 336 336 337 338 339
197 188 137 243 243 135 162 220 179 184 198 195 203 206 205 199 220 229 228 206 200 222 222 223 215 208 201 177 164 151 148 150 150 321 329 333 334 333 335 337 338 338 339 339
179 190 168 228 193 170 268 154 130 172 198 190 187 188 195 204 228 220 205 214 230 224 225 227 189 130 128 134 136 136 135 131 80 344 339 337 338 337 338 338 339 340 340 341
164 182 192 201 193 222 130 213 135 152 157 162 176 188 201 213 195 213 236 250 255 50 91 115 117 112 113 120 124 126 122 106 32 355 348 346 344 343 342 342 342 343 343 342
183 172 177 193 181 180 167 186 119 155 176 224 185 185 202 203 223 235 265 304 320 356 80 101 102 107 112 115 117 111 97 56 26 11 359 353 350 348 348 346 345 344 343 342
118 108 149 80 196 208 219 67 75 234 256 248 229 197 190 250 278 285 296 317 331 71 78 76 86 89 95 104 107 92 65 40 26 13 4 358 354 352 350 348 346 345 344 343
316 53 20 52 49 57 72 113 249 259 265 292 299 282 117 318 285 313 313 354 63 61 71 73 87 87 75 78 87 74 45 42 27 13 3 359 356 352 350 348 346 346 346 344
331 342 352 351 26 34 31 83 74 308 315 311 301 2 25 35 6 39 61 53 52 49 64 75 81 77 68 57 53 55 51 38 24 11 4 360 354 352 352 351 350 348 346 344
325 348 342 344 6 342 239 28 6 12 12 20 30 43 68 80 77 79 70 65 64 63 63 69 74 70 60 58 52 48 44 35 20 11 3 358 356 354 352 351 350 348 348 347
307 308 315 324 334 313 317 36 32 14 20 42 63 67 66 81 83 76 66 61 67 71 71 67 60 59 56 54 49 41 34 27 17 8 3 1 358 355 353 349 348 350 350 349